GAP211 RPVE-RPLL

Flight info

Callsign GAP211
Flight time 0h 42m
Altitude 24000
Route MINOR8A MINOR B473 LAIYA LAIYA5R
Aircraft A20N/M-SDE2E3FGHIRWXY/LB1

Departure

Time 2026-04-25 13:42
Airport Godofredo P. Ramos Airport (RPVE)

Arrival

Time 2026-04-25 14:25
Airport Ninoy Aquino International Airport (RPLL)
Time Latitude Longitude Altitude Speed Heading
2026-04-25 13:05 11.92706 121.96439 23 ft 0 kts 153°
2026-04-25 13:28 11.92708 121.96438 23 ft 1 kts 153°
2026-04-25 13:28 11.92715 121.96434 29 ft 1 kts 153°
2026-04-25 13:29 11.92725 121.96429 30 ft 2 kts 153°
2026-04-25 13:29 11.92739 121.96424 33 ft 2 kts 185°
2026-04-25 13:29 11.92750 121.96428 30 ft 0 kts 243°
2026-04-25 13:30 11.92748 121.96425 30 ft 2 kts 243°
2026-04-25 13:30 11.92727 121.96381 27 ft 9 kts 243°
2026-04-25 13:31 11.92652 121.96232 27 ft 10 kts 242°
2026-04-25 13:31 11.92661 121.96191 30 ft 0 kts 329°
2026-04-25 13:31 11.92663 121.96191 29 ft 0 kts 329°
2026-04-25 13:31 11.92665 121.96190 29 ft 0 kts 336°
2026-04-25 13:37 11.92676 121.96185 30 ft 5 kts 336°
2026-04-25 13:37 11.92738 121.96154 26 ft 13 kts 333°
2026-04-25 13:37 11.92744 121.96151 26 ft 0 kts 333°
2026-04-25 13:39 11.92760 121.96143 29 ft 8 kts 333°
2026-04-25 13:40 11.92797 121.96067 27 ft 13 kts 249°
2026-04-25 13:40 11.92724 121.95933 28 ft 30 kts 244°
2026-04-25 13:40 11.92604 121.95695 29 ft 45 kts 242°
2026-04-25 13:40 11.92444 121.95376 26 ft 54 kts 242°
2026-04-25 13:41 11.92296 121.95089 31 ft 25 kts 227°
2026-04-25 13:41 11.92247 121.95020 26 ft 1 kts 315°
2026-04-25 13:41 11.92271 121.95032 26 ft 11 kts 34°
2026-04-25 13:41 11.92305 121.95098 28 ft 0 kts 63°
2026-04-25 13:42 11.92389 121.95264 27 ft 70 kts 62°
2026-04-25 13:42 11.92739 121.95961 28 ft 146 kts 63°
2026-04-25 13:42 11.93247 121.96959 633 ft 160 kts 63°
2026-04-25 13:42 11.93761 121.97965 1570 ft 160 kts 64°
2026-04-25 13:43 11.94277 121.99010 2451 ft 171 kts 64°
2026-04-25 13:43 11.94842 122.00156 3176 ft 190 kts 65°
2026-04-25 13:43 11.95463 122.01410 3767 ft 208 kts 65°
2026-04-25 13:43 11.96359 122.02680 4175 ft 235 kts 41°
2026-04-25 13:44 11.97824 122.03599 4691 ft 259 kts 31°
2026-04-25 13:44 11.99458 122.04440 5473 ft 267 kts 28°
2026-04-25 13:44 12.01144 122.05266 6362 ft 272 kts 28°
2026-04-25 13:44 12.02856 122.06110 7174 ft 277 kts 28°
2026-04-25 13:45 12.04616 122.06991 8003 ft 281 kts 28°
2026-04-25 13:45 12.06367 122.07878 8814 ft 285 kts 27°
2026-04-25 13:45 12.08159 122.08791 9641 ft 290 kts 27°
2026-04-25 13:45 12.09990 122.09727 10322 ft 299 kts 27°
2026-04-25 13:46 12.11914 122.10711 10570 ft 323 kts 27°
2026-04-25 13:46 12.14001 122.11778 10841 ft 343 kts 27°
2026-04-25 13:46 12.16160 122.12881 11486 ft 349 kts 27°
2026-04-25 13:46 12.18334 122.13991 12169 ft 354 kts 27°
2026-04-25 13:47 12.20553 122.15125 12858 ft 359 kts 27°
2026-04-25 13:47 12.22825 122.16285 13523 ft 364 kts 27°
2026-04-25 13:47 12.25090 122.17443 14143 ft 369 kts 27°
2026-04-25 13:47 12.27383 122.18615 14810 ft 370 kts 27°
2026-04-25 13:48 12.29707 122.19803 15456 ft 373 kts 27°
2026-04-25 13:48 12.32029 122.20991 16074 ft 376 kts 27°
2026-04-25 13:48 12.34481 122.21934 16678 ft 380 kts 12°
2026-04-25 13:48 12.37121 122.22088 17234 ft 385 kts 354°
2026-04-25 13:49 12.39732 122.21407 17803 ft 390 kts 337°
2026-04-25 13:49 12.42088 122.20016 18342 ft 394 kts 327°
2026-04-25 13:49 12.44354 122.18405 18812 ft 398 kts 325°
2026-04-25 13:49 12.46616 122.16759 19322 ft 400 kts 324°
2026-04-25 13:50 12.48906 122.15113 19824 ft 403 kts 325°
2026-04-25 13:50 12.51231 122.13468 20302 ft 407 kts 325°
2026-04-25 13:50 12.53584 122.11822 20781 ft 410 kts 325°
2026-04-25 13:50 12.55960 122.10169 21284 ft 413 kts 325°
2026-04-25 13:51 12.58346 122.08511 21776 ft 416 kts 325°
2026-04-25 13:51 12.60729 122.06857 22272 ft 418 kts 324°
2026-04-25 13:51 12.63146 122.05178 22777 ft 421 kts 324°
2026-04-25 13:51 12.65602 122.03471 23217 ft 424 kts 324°
2026-04-25 13:52 12.68025 122.01785 23654 ft 427 kts 324°
2026-04-25 13:52 12.70514 122.00053 23870 ft 429 kts 324°
2026-04-25 13:52 12.72969 121.98345 23939 ft 429 kts 324°
2026-04-25 13:52 12.75451 121.96617 23957 ft 429 kts 324°
2026-04-25 13:53 12.77890 121.94919 23954 ft 428 kts 324°
2026-04-25 13:53 12.80382 121.93183 23958 ft 429 kts 324°
2026-04-25 13:53 12.82833 121.91476 23954 ft 428 kts 324°
2026-04-25 13:53 12.85311 121.89748 23959 ft 429 kts 324°
2026-04-25 13:54 12.87782 121.88026 23957 ft 429 kts 324°
2026-04-25 13:54 12.90229 121.86320 23954 ft 429 kts 324°
2026-04-25 13:54 12.91882 121.85167 23956 ft 429 kts 324°
2026-04-25 13:55 12.93027 121.84368 23958 ft 429 kts 324°
2026-04-25 13:55 12.95496 121.82646 23959 ft 429 kts 324°
2026-04-25 13:55 12.97960 121.80926 23956 ft 429 kts 324°
2026-04-25 13:55 13.00432 121.79201 23957 ft 429 kts 324°
2026-04-25 13:56 13.02894 121.77482 23954 ft 429 kts 324°
2026-04-25 13:56 13.05370 121.75753 23960 ft 429 kts 324°
2026-04-25 13:56 13.07821 121.74041 23961 ft 429 kts 324°
2026-04-25 13:56 13.10282 121.72322 23962 ft 429 kts 324°
2026-04-25 13:57 13.12772 121.70582 23955 ft 429 kts 324°
2026-04-25 13:57 13.13567 121.70026 23965 ft 429 kts 324°
2026-04-25 13:57 13.17703 121.67134 23967 ft 429 kts 324°
2026-04-25 13:57 13.20178 121.65403 23965 ft 429 kts 324°
2026-04-25 13:58 13.22630 121.63688 23961 ft 429 kts 324°
2026-04-25 13:58 13.25100 121.61960 23962 ft 429 kts 324°
2026-04-25 13:58 13.27564 121.60235 23968 ft 429 kts 324°
2026-04-25 13:58 13.30045 121.58498 23967 ft 429 kts 324°
2026-04-25 13:59 13.32500 121.56780 23962 ft 429 kts 324°
2026-04-25 13:59 13.34970 121.55049 23938 ft 427 kts 324°
2026-04-25 13:59 13.37427 121.53328 23657 ft 425 kts 324°
2026-04-25 13:59 13.39846 121.51632 23149 ft 423 kts 324°
2026-04-25 14:00 13.41478 121.50488 22788 ft 421 kts 324°
2026-04-25 14:00 13.43873 121.48810 22218 ft 417 kts 324°
2026-04-25 14:00 13.47073 121.46565 21138 ft 421 kts 324°
2026-04-25 14:00 13.48683 121.45436 20948 ft 413 kts 324°
2026-04-25 14:01 13.51780 121.43266 20750 ft 393 kts 324°
2026-04-25 14:01 13.53992 121.41714 20624 ft 379 kts 324°
2026-04-25 14:01 13.56135 121.40210 20507 ft 366 kts 324°
2026-04-25 14:01 13.57522 121.39236 20378 ft 359 kts 324°
2026-04-25 14:02 13.59543 121.37768 20083 ft 352 kts 322°
2026-04-25 14:02 13.61485 121.36309 19985 ft 344 kts 322°
2026-04-25 14:02 13.63452 121.34823 19971 ft 349 kts 322°
2026-04-25 14:02 13.64743 121.33851 19971 ft 350 kts 322°
2026-04-25 14:03 13.67376 121.31878 19971 ft 349 kts 322°
2026-04-25 14:03 13.69342 121.30411 19930 ft 348 kts 322°
2026-04-25 14:03 13.71310 121.28943 19618 ft 349 kts 323°
2026-04-25 14:03 13.73287 121.27468 19182 ft 350 kts 323°
2026-04-25 14:04 13.75239 121.26012 18794 ft 349 kts 323°
2026-04-25 14:04 13.77192 121.24556 18413 ft 346 kts 323°
2026-04-25 14:04 13.79153 121.23093 17984 ft 344 kts 323°
2026-04-25 14:04 13.81075 121.21659 17561 ft 341 kts 323°
2026-04-25 14:05 13.82988 121.20231 17153 ft 339 kts 323°
2026-04-25 14:05 13.84894 121.18809 16732 ft 337 kts 323°
2026-04-25 14:05 13.86779 121.17401 16324 ft 334 kts 323°
2026-04-25 14:05 13.88654 121.16002 15923 ft 332 kts 323°
2026-04-25 14:06 13.90523 121.14606 15523 ft 330 kts 323°
2026-04-25 14:06 13.92368 121.13227 15145 ft 328 kts 323°
2026-04-25 14:06 13.94222 121.11841 14740 ft 326 kts 323°
2026-04-25 14:06 13.96056 121.10471 14355 ft 324 kts 323°
2026-04-25 14:07 13.97871 121.09114 13978 ft 322 kts 323°
2026-04-25 14:07 13.99677 121.07764 13582 ft 321 kts 323°
2026-04-25 14:07 14.01475 121.06419 13172 ft 318 kts 323°
2026-04-25 14:07 14.03255 121.05088 12772 ft 316 kts 323°
2026-04-25 14:08 14.05046 121.03748 12365 ft 314 kts 323°
2026-04-25 14:08 14.06805 121.02432 11976 ft 311 kts 323°
2026-04-25 14:08 14.08542 121.01131 11583 ft 309 kts 324°
2026-04-25 14:08 14.10288 120.99824 11196 ft 307 kts 324°
2026-04-25 14:09 14.12005 120.98539 10830 ft 304 kts 324°
2026-04-25 14:09 14.13703 120.97266 10481 ft 301 kts 324°
2026-04-25 14:09 14.15325 120.96052 10375 ft 290 kts 324°
2026-04-25 14:09 14.16413 120.95237 10310 ft 281 kts 324°
2026-04-25 14:10 14.18555 120.93827 10080 ft 270 kts 330°
2026-04-25 14:10 14.20207 120.92860 9755 ft 268 kts 330°
2026-04-25 14:10 14.21801 120.91921 9395 ft 267 kts 330°
2026-04-25 14:10 14.23435 120.90955 9045 ft 266 kts 330°
2026-04-25 14:11 14.24987 120.89970 8692 ft 265 kts 320°
2026-04-25 14:11 14.26042 120.88454 8564 ft 255 kts 290°
2026-04-25 14:11 14.26243 120.86681 8386 ft 249 kts 262°
2026-04-25 14:11 14.25644 120.85047 8063 ft 249 kts 240°
2026-04-25 14:12 14.24752 120.83481 7597 ft 256 kts 240°
2026-04-25 14:12 14.23824 120.81844 7019 ft 267 kts 240°
2026-04-25 14:12 14.22874 120.80149 6432 ft 278 kts 240°
2026-04-25 14:12 14.21915 120.78428 6112 ft 278 kts 240°
2026-04-25 14:13 14.20933 120.76660 6009 ft 288 kts 240°
2026-04-25 14:13 14.19938 120.74874 5989 ft 288 kts 240°
2026-04-25 14:13 14.18920 120.73072 5990 ft 288 kts 239°
2026-04-25 14:13 14.17915 120.71300 5968 ft 287 kts 239°
2026-04-25 14:14 14.16918 120.69540 5799 ft 284 kts 239°
2026-04-25 14:14 14.15949 120.67777 5472 ft 283 kts 246°
2026-04-25 14:14 14.15538 120.65831 5329 ft 282 kts 272°
2026-04-25 14:14 14.16022 120.63849 5201 ft 283 kts 299°
2026-04-25 14:15 14.17263 120.62350 5087 ft 279 kts 326°
2026-04-25 14:15 14.17822 120.61994 5048 ft 278 kts 335°
2026-04-25 14:15 14.20909 120.61751 4993 ft 272 kts 20°
2026-04-25 14:15 14.22557 120.62682 4979 ft 272 kts 34°
2026-04-25 14:16 14.24142 120.63732 4995 ft 271 kts 33°
2026-04-25 14:16 14.25758 120.64761 4978 ft 270 kts 32°
2026-04-25 14:16 14.27361 120.65752 4976 ft 270 kts 32°
2026-04-25 14:16 14.28970 120.66737 4985 ft 270 kts 32°
2026-04-25 14:17 14.30581 120.67721 4987 ft 269 kts 32°
2026-04-25 14:17 14.32153 120.68754 4996 ft 270 kts 40°
2026-04-25 14:17 14.33432 120.70154 4981 ft 269 kts 56°
2026-04-25 14:17 14.34350 120.71824 4982 ft 268 kts 62°
2026-04-25 14:18 14.35224 120.73492 4954 ft 264 kts 62°
2026-04-25 14:18 14.36090 120.75128 4875 ft 254 kts 62°
2026-04-25 14:18 14.36921 120.76691 4798 ft 244 kts 62°
2026-04-25 14:18 14.37723 120.78197 4711 ft 233 kts 62°
2026-04-25 14:19 14.38489 120.79636 4597 ft 219 kts 62°
2026-04-25 14:19 14.39198 120.80966 4450 ft 204 kts 62°
2026-04-25 14:19 14.39870 120.82223 4165 ft 198 kts 62°
2026-04-25 14:19 14.40549 120.83450 3804 ft 196 kts 61°
2026-04-25 14:20 14.41232 120.84664 3429 ft 196 kts 62°
2026-04-25 14:20 14.41686 120.85470 3209 ft 195 kts 62°
2026-04-25 14:20 14.42558 120.87023 3041 ft 177 kts 62°
2026-04-25 14:20 14.43149 120.88077 2937 ft 162 kts 62°
2026-04-25 14:21 14.43683 120.89032 2842 ft 142 kts 63°
2026-04-25 14:21 14.44159 120.89889 2599 ft 133 kts 62°
2026-04-25 14:21 14.44617 120.90720 2263 ft 132 kts 62°
2026-04-25 14:21 14.45073 120.91544 1883 ft 133 kts 63°
2026-04-25 14:22 14.45528 120.92366 1508 ft 133 kts 63°
2026-04-25 14:22 14.45986 120.93193 1157 ft 132 kts 63°
2026-04-25 14:22 14.46438 120.93998 943 ft 129 kts 63°
2026-04-25 14:22 14.46896 120.94809 888 ft 136 kts 62°
2026-04-25 14:23 14.47366 120.95641 845 ft 131 kts 62°
2026-04-25 14:23 14.47824 120.96471 746 ft 134 kts 62°
2026-04-25 14:23 14.48305 120.97318 647 ft 136 kts 61°
2026-04-25 14:23 14.48765 120.98163 540 ft 136 kts 62°
2026-04-25 14:24 14.49240 120.99005 382 ft 134 kts 62°
2026-04-25 14:24 14.49707 120.99854 175 ft 137 kts 63°
2026-04-25 14:24 14.50169 121.00693 64 ft 127 kts 62°
2026-04-25 14:24 14.50475 121.01258 63 ft 59 kts 59°
2026-04-25 14:25 14.50675 121.01608 65 ft 54 kts 59°
2026-04-25 14:25 14.50839 121.01779 65 ft 11 kts 33°
2026-04-25 14:25 14.50898 121.01774 65 ft 3 kts 311°
2026-04-25 14:25 14.50899 121.01773 60 ft 2 kts 311°
2026-04-25 14:26 14.50895 121.01725 61 ft 6 kts 236°
2026-04-25 14:26 14.50888 121.01713 60 ft 3 kts 240°
2026-04-25 14:26 14.50886 121.01672 61 ft 7 kts 288°
2026-04-25 14:26 14.50910 121.01599 68 ft 14 kts 247°
2026-04-25 14:27 14.50864 121.01522 66 ft 15 kts 243°
2026-04-25 14:27 14.50849 121.01491 60 ft 6 kts 243°
2026-04-25 14:27 14.50854 121.01434 60 ft 12 kts 349°
2026-04-25 14:27 14.50918 121.01408 65 ft 0 kts 329°